Belleville, IL

3:16 AM CDT on May 27, 2017 (GMT -0500)
Scott Air Force Base-Midamerica

Weather History for KBLV - January, 2012

Change the Weather History Date:

Friday, January 13, 2012

  Actual Average Record
Temperature  
Mean Temperature 16 °F -  
Max Temperature 21 °F 38 °F 73 °F (2005)
Min Temperature 9 °F 19 °F -2 °F (1997)
Degree Days  
Heating Degree Days 50    
Moisture  
Dew Point 10 °F    
Average Humidity 71    
Maximum Humidity 94    
Minimum Humidity 63    
Precipitation  
Precipitation 0.00 in - - ()
Sea Level Pressure  
Sea Level Pressure 30.07 in    
Wind  
Wind Speed 13 mph (West)    
Max Wind Speed 21 mph    
Max Gust Speed 32 mph    
Visibility 10 miles    
Events Snow    
Averages and records for this station are not official NWS values.
T = Trace of Precipitation, MM = Missing Value Source: NWS Daily Summary

Daily Weather History Graph

Daily Weather History Graph

Search for Another Location

Airport or City:

Trip Planner

Search our weather history database for the weather conditions in past years. The results will help you decide how hot, cold, wet, or windy it might be!

Date:

Astronomy

Jan. 13, 2012 Rise Set
Actual Time 7:16 AM CST 4:59 PM CST
Civil Twilight 6:47 AM CST 5:28 PM CST
Nautical Twilight 6:14 AM CST 6:01 PM CST
Astronomical Twilight 5:42 AM CST 6:33 PM CST
Moon 10:08 PM CST (1/13) 9:34 AM CST (1/13)
Length of Visible Light 10h 41m
Length of Day
9h 43m
Waning Gibbous, 78% of the Moon is Illuminated
Jan 13
Waning Gibbous
Jan 16
Last Quarter
Jan 23
New
Jan 30
First Quarter
Feb 7
Full

Hourly Weather History & Observations

Time (CST) Temp. Windchill Dew Point Humidity Pressure Visibility Wind Dir Wind Speed Gust Speed Precip Events Conditions
12:55 AM 17.6 °F 2.7 °F 8.6 °F 68% 29.94 in 10.0 mi West 16.1 mph 23.0 mph N/A   Overcast
1:27 AM 17.6 °F 1.7 °F 8.6 °F 68% 29.95 in 10.0 mi West 18.4 mph 24.2 mph N/A   Overcast
1:41 AM 17.6 °F 2.2 °F 8.6 °F 68% 29.96 in 10.0 mi WNW 17.3 mph 21.9 mph N/A Snow Light Snow
1:52 AM 17.6 °F 2.7 °F 8.6 °F 68% 29.96 in 10.0 mi West 16.1 mph 26.5 mph N/A Snow Light Snow
1:55 AM 18.1 °F 3.9 °F 8.6 °F 66% 29.96 in 10.0 mi West 15.0 mph 26.5 mph 0.00 in Snow Light Snow
2:23 AM 17.6 °F 1.3 °F 8.6 °F 68% 29.96 in 10.0 mi WNW 19.6 mph 26.5 mph N/A   Overcast
2:29 AM 17.6 °F 1.7 °F 8.6 °F 68% 29.97 in 10.0 mi WNW 18.4 mph 26.5 mph N/A Snow Light Snow
2:52 AM 17.6 °F 0.9 °F 8.6 °F 68% 29.97 in 10.0 mi WNW 20.7 mph 32.2 mph N/A   Overcast
2:55 AM 18.0 °F 3.1 °F 8.4 °F 66% 29.97 in 10.0 mi West 16.1 mph 27.6 mph 0.00 in   Overcast
3:55 AM 17.2 °F 1.7 °F 7.2 °F 65% 29.98 in 10.0 mi West 17.3 mph 27.6 mph N/A   Mostly Cloudy
4:16 AM 17.6 °F 2.7 °F 6.8 °F 63% 29.99 in 10.0 mi West 16.1 mph - N/A   Mostly Cloudy
4:55 AM 16.5 °F 2.4 °F 7.2 °F 67% 29.99 in 10.0 mi WNW 13.8 mph - N/A   Scattered Clouds
5:55 AM 16.2 °F 1.3 °F 7.2 °F 68% 30.02 in 10.0 mi WNW 15.0 mph 21.9 mph N/A   Scattered Clouds
6:17 AM 15.8 °F 2.7 °F 6.8 °F 68% 30.03 in 10.0 mi West 11.5 mph - N/A   Mostly Cloudy
6:55 AM 16.0 °F 3.6 °F 7.7 °F 70% 30.04 in 10.0 mi West 10.4 mph - N/A   Mostly Cloudy
7:09 AM 15.8 °F 2.7 °F 8.6 °F 73% 30.05 in 10.0 mi West 11.5 mph - N/A Snow Light Snow
7:18 AM 17.6 °F 5.0 °F 8.6 °F 68% 30.05 in 10.0 mi West 11.5 mph - N/A   Overcast
7:32 AM 17.6 °F 5.0 °F 8.6 °F 68% 30.06 in 10.0 mi West 11.5 mph - N/A Snow Light Snow
7:55 AM 17.4 °F 4.7 °F 9.5 °F 71% 30.06 in 10.0 mi West 11.5 mph - 0.00 in Snow Light Snow
8:12 AM 17.6 °F 3.7 °F 8.6 °F 68% 30.07 in 10.0 mi West 13.8 mph - N/A   Overcast
8:22 AM 17.6 °F 3.2 °F 8.6 °F 68% 30.07 in 10.0 mi West 15.0 mph - N/A Snow Light Snow
8:55 AM 18.1 °F 5.0 °F 9.3 °F 68% 30.08 in 10.0 mi West 12.7 mph - 0.00 in Snow Light Snow
9:17 AM 19.4 °F 7.2 °F 8.6 °F 63% 30.10 in 10.0 mi West 11.5 mph - N/A   Overcast
9:55 AM 18.9 °F 5.3 °F 8.8 °F 65% 30.11 in 10.0 mi West 13.8 mph - 0.00 in   Overcast
10:04 AM 19.4 °F 6.0 °F 8.6 °F 63% 30.12 in 10.0 mi WNW 13.8 mph - N/A Snow Light Snow
10:55 AM 19.6 °F 9.7 °F 11.8 °F 72% 30.12 in 8.0 mi WNW 8.1 mph - 0.00 in Snow Light Snow
11:55 AM 20.7 °F 9.5 °F 12.7 °F 71% 30.11 in 10.0 mi West 10.4 mph - 0.00 in Snow Light Snow
12:55 PM 21.0 °F 10.6 °F 13.6 °F 73% 30.11 in 9.0 mi West 9.2 mph - 0.00 in Snow Light Snow
1:24 PM 21.2 °F 9.5 °F 12.2 °F 68% 30.10 in 10.0 mi West 11.5 mph - N/A Snow Light Snow
1:27 PM 21.2 °F 9.5 °F 12.2 °F 68% 30.10 in 10.0 mi West 11.5 mph - N/A   Overcast
1:28 PM 21.2 °F 9.5 °F 12.2 °F 68% 30.10 in 10.0 mi West 11.5 mph - N/A Snow Light Snow
1:29 PM 21.2 °F 10.1 °F 12.2 °F 68% 30.10 in 10.0 mi West 10.4 mph - N/A   Overcast
1:30 PM 21.2 °F 10.1 °F 12.2 °F 68% 30.10 in 10.0 mi West 10.4 mph - N/A Snow Light Snow
1:37 PM 21.2 °F 10.1 °F 12.2 °F 68% 30.10 in 10.0 mi WSW 10.4 mph - N/A Snow Light Snow
1:38 PM 21.2 °F 9.5 °F 12.2 °F 68% 30.10 in 10.0 mi WSW 11.5 mph - N/A   Overcast
1:44 PM 21.2 °F 8.9 °F 12.2 °F 68% 30.10 in 10.0 mi West 12.7 mph - N/A Snow Light Snow
1:55 PM 21.6 °F 9.3 °F 13.6 °F 72% 30.10 in 9.0 mi West 12.7 mph - 0.00 in Snow Light Snow
2:37 PM 21.2 °F 11.7 °F 12.2 °F 68% 30.11 in 10.0 mi WSW 8.1 mph - N/A   Overcast
2:55 PM 20.8 °F 9.7 °F 11.7 °F 68% 30.12 in 10.0 mi West 10.4 mph - 0.00 in   Overcast
3:36 PM 21.2 °F 12.6 °F 12.2 °F 68% 30.13 in 10.0 mi WNW 6.9 mph - N/A   Scattered Clouds
3:55 PM 21.6 °F 14.0 °F 11.7 °F 66% 30.13 in 10.0 mi WNW 5.8 mph - N/A   Partly Cloudy
4:55 PM 19.4 °F 11.5 °F 10.9 °F 70% 30.14 in 10.0 mi WNW 5.8 mph - N/A   Clear
5:55 PM 18.5 °F - 11.5 °F 74% 30.16 in 10.0 mi Calm Calm - N/A   Clear
6:55 PM 15.6 °F - 11.5 °F 84% 30.17 in 10.0 mi Calm Calm - N/A   Clear
7:55 PM 14.0 °F - 11.5 °F 90% 30.17 in 10.0 mi Calm Calm - N/A   Clear
8:55 PM 12.4 °F - 9.9 °F 90% 30.18 in 10.0 mi Calm Calm - N/A   Clear
9:55 PM 10.9 °F - 9.3 °F 93% 30.19 in 10.0 mi Calm Calm - N/A   Clear
10:55 PM 10.9 °F - 9.5 °F 94% 30.18 in 10.0 mi Calm Calm - N/A   Clear
11:55 PM 9.7 °F - 7.9 °F 92% 30.19 in 10.0 mi Calm Calm - N/A   Clear